Location: Sperry Observatory
(40.6664°N, 74.3236°W)
Time: 10:12:21
(UTC-04:00)

UOSAT-12 - Visible Passes

Search period start: 30 March 2015 00:00
Search period end: 09 April 2015 00:00
Orbit: 596 x 660 km, 64.6° (Epoch: 30 March)

Date Brightness Start Highest point End Pass type
(mag) Time Alt. Az. Time Alt. Az. Time Alt. Az.
30 Mar 8.6 04:48:31 10° NNW 04:52:53 38° NE 04:57:11 10° ESE visible
30 Mar 7.3 20:38:32 10° SW 20:43:14 80° NW 20:47:58 10° NNE visible
30 Mar 10.2 22:21:44 10° WNW 22:24:12 14° NW 22:26:31 10° N visible
31 Mar 10.2 03:30:00 10° N 03:32:13 13° NE 03:34:35 10° ENE visible
31 Mar 7.2 05:08:30 10° NNW 05:13:12 80° ENE 05:17:46 10° SE visible
31 Mar 8.7 20:59:09 10° WSW 21:03:32 38° NW 21:07:57 10° NNE visible
01 Apr 9.4 03:49:11 10° N 03:52:55 23° NE 03:56:40 10° E visible
01 Apr 7.4 05:28:50 10° NW 05:33:19 46° WSW 05:37:39 10° S visible
01 Apr 7.3 19:38:58 10° SSW 19:43:32 57° ESE 19:48:11 10° NE visible
01 Apr 9.8 21:20:28 10° W 21:24:04 21° NW 21:27:36 10° N visible
02 Apr 8.2 04:08:55 10° NNW 04:13:24 45° NE 04:17:48 10° SE visible
02 Apr 8.3 05:49:46 10° WNW 05:53:16 21° WSW 05:56:35 10° SSW visible
02 Apr 7.7 19:59:02 10° SW 20:03:42 66° NW 20:08:25 10° NNE visible
02 Apr 10.3 21:42:55 10° WNW 21:44:49 12° NW 21:46:33 10° NNW visible
03 Apr 10.0 02:50:08 10° N 02:52:49 15° NE 02:55:37 10° ENE visible
03 Apr 7.0 04:28:58 10° NNW 04:33:39 85° WSW 04:38:13 10° SSE visible
03 Apr 9.1 20:19:48 10° WSW 20:24:03 33° NW 20:28:19 10° NNE visible
04 Apr 9.7 03:09:29 10° NNW 03:19:55 - ESE 03:10:43 16° N visible
04 Apr 9.3 04:57:35 12° S 04:57:35 12° S 04:57:54 10° S visible
04 Apr 10.0 20:41:20 10° W 20:44:38 18° NW 20:47:51 10° N visible
05 Apr 10.4 21:04:26 10° NW 21:05:25 10° NNW 21:06:14 10° NNW visible
07 Apr 10.0 20:02:14 10° WNW 20:05:12 16° NW 20:08:03 10° N visible
